STARLINK-1773

decayed
NORAD ID: 46679 Int'l Des: 2020-073 Owner: SPXS Country: US Constellation: starlink
LEOCIRCULAR
グループ

STARLINK-1773について

説明を読み込み中...

高度履歴

Altitude vs Time

uPlot chart will show altitude changes over time

軌道要素

1 46679U 20073K 25224.46876844 .34644078 12711-4 26364-3 0 9992
2 46679 53.0104 22.6513 0006915 272.4860 191.0557 16.52254740267173
Epoch: Aug 12, 2025 • Age: 671 hours

現在のステータス

Position data unavailable
打ち上げ日 Oct 18, 2020
運用期間 4.8 years
落下予定日 Aug 12, 2025
タイプ internet

技術仕様

分類 Payload
質量 260.00 kg
乾燥質量 248.00 kg
総質量 260.00 kg
長さ 0.20 m
直径 2.80 m
スパン 9.00 m
形状 Box + pan
製造者 SPXS
バスタイプ Starlink
フェーズステータス Reentered
所有者/国 SPXS/US

大規模コンステレーション

Loading constellations...